{"data":{"norad_id":64146,"epoch":"2026-09-20T21:08:11.994432Z","epoch_age_seconds":107487,"freshness":"FRESH","line1":"1 64146U 25112A   26263.88069438  .00014086  00000+0  43770-3 0  9999","line2":"2 64146  97.2830 310.8940 0000550 123.0931 237.0365 15.33455031 72809","mean_motion":15.33455031,"eccentricity":5.5e-5,"inclination_deg":97.283,"raan_deg":310.894,"arg_perigee_deg":123.0931,"mean_anomaly_deg":237.0365,"bstar":0.0004377,"rev_number":7280,"period_min":93.905590375281,"perigee_km":465.13692867411,"apogee_km":465.88973021035,"semimajor_km":6843.6503294422,"source":"CELESTRAK","updated_at":"2026-09-21T09:00:35.237293Z"}}